Tracking 29093 objects as of 14-Jul-2024
HD Live streaming from Space Station
objects crossing your sky now

ATLAS 5 CENTAUR DEB

Track ATLAS 5 CENTAUR DEB now!


NORAD ID: 49361
Int'l Code: 2018-079FN
Perigee: 10,021.4 km
Apogee: 41,200.5 km
Inclination: 9.8 °
Period: 948.7 minutes
Semi major axis: 31981 km
RCS: Unknown
Launch date: October 17, 2018
Source: United States (US)
Launch site: AIR FORCE EASTERN TEST RANGE (AFETR)

Note: This is SATELLITE DEBRIS
Your satellite tracking list
Your tracking list is empty




NASA's NSSDC Master Catalog

Two Line Element Set (TLE):
1 49361U 18079FN  24194.21863784 -.00000059  00000-0  00000-0 0  9992
2 49361   9.7561 150.3174 4874487  82.8885 327.9303  1.51790766 15910
Source of the keplerian elements: AFSPC